Location: Famechon
(49.7599°N, 2.0615°E)
Time: 08:52:28
(UTC+00:00)

MINOTAUR 4 R/B - Pass Details

Date: 03 February 2023
Orbit: 448 x 453 km, 98.0° (Epoch: 23 March)

Event Time Altitude Azimuth Distance (km) Brightness Sun altitude
Exits shadow 18:47:36 62° 49° (NE) 511 3.8 -19.2°
Maximum altitude 18:48:01 73° 103° (ESE) 475 3.7 -19.3°
Drops below altitude 10° 18:51:23 10° 189° (S) 1,573 6.8 -19.8°
Sets 18:53:24 0° 191° (S) 2,440 7.8 -20.1°
